Zurück zum Katalog

THOR ABLESTAR DEB

AktivLEO
NORAD 336·DEBRIS·🇺🇸 United States

Gestartet Jun 29, 1961 von Cape Canaveral Space Force Station

Loading…

Nächste Überflüge (nächste 24 Stunden)

TLE

AktuellSource: Space-Track

Epoche: Sep 10, 2026, 16:43 UTC

1 00336U 61015DN  26253.69664641  .00000013  00000-0  94727-4 0  9992
2 00336  67.0329 354.6785 0071868  74.0037  42.3538 13.69236331250908

Verfolge THOR ABLESTAR DEB in Echtzeit mit AllMySat

Download on the App Store